Location: Miles
(41.4492°N, 81.6087°W)
Time: 04:48:45
(UTC+00:00)

Courier 1B - Pass Details

Date: 14 September 2024
Orbit: 962 x 1208 km, 28.3° (Epoch: 02 October)

Event Time Altitude Azimuth Distance (km) Brightness Sun altitude
Rises 01:54:31 0° 255° (WSW) 4,104 11.4 -25.1°
Reaches altitude 10° 02:00:43 10° 219° (SW) 3,134 10.2 -26.1°
Maximum altitude 02:02:01 10° 209° (SSW) 3,095 10.1 -26.3°
Drops below altitude 10° 02:03:19 10° 199° (SSW) 3,124 10.0 -26.5°
Enters shadow 02:04:21 - 192° (SSW) 3,196 10.0 -26.7°
Sets 02:09:27 0° 163° (SSE) 4,044 - -27.5°
